contact:dominique.lefevre@mio.osupytheas.fr, maurice.libes@osupytheas.fr, didier.mallarino@osupytheas.fr
Project:EMSO http://www.emso-fr.org/EMSO-France
Depth: 2436.0 m
Title:EMSO Ligure Ouest : Data MII capteur MICROCAT
DateTime_Computer,Latitude,Longitude,Temperature,Conductivity,Pressure,DateTime_Instrument
DateTime_Computer,Latitude,Longitude,degC,S m-1,dbar,DateTime_Instrument
2020-09-03T00:00:28Z,42.805,6.029,13.2981,4.60041,2470.11,2020-9-03T02:01:19Z
2020-09-03T00:03:32Z,42.805,6.029,13.2989,4.60037,2470.124,2020-9-03T02:04:22Z
2020-09-03T00:06:33Z,42.805,6.029,13.2998,4.60020,2470.1,2020-9-03T02:07:24Z
2020-09-03T00:09:36Z,42.805,6.029,13.2984,4.60038,2470.11,2020-9-03T02:10:27Z
2020-09-03T00:12:40Z,42.805,6.029,13.2981,4.60031,2470.11,2020-9-03T02:13:31Z
2020-09-03T00:15:44Z,42.805,6.029,13.2982,4.60019,2470.124,2020-9-03T02:16:35Z
2020-09-03T00:18:45Z,42.805,6.029,13.2996,4.60032,2470.087,2020-9-03T02:19:36Z
2020-09-03T00:21:48Z,42.805,6.029,13.2991,4.60019,2470.063,2020-9-03T02:22:39Z
2020-09-03T00:24:52Z,42.805,6.029,13.2992,4.60044,2470.11,2020-9-03T02:25:42Z
2020-09-03T00:27:55Z,42.805,6.029,13.2995,4.60032,2470.1,2020-9-03T02:28:46Z
2020-09-03T00:30:58Z,42.805,6.029,13.2984,4.60028,2470.1,2020-9-03T02:31:49Z
2020-09-03T00:34:02Z,42.805,6.029,13.2999,4.60046,2470.087,2020-9-03T02:34:53Z
2020-09-03T00:37:06Z,42.805,6.029,13.2987,4.60052,2470.1,2020-9-03T02:37:55Z
2020-09-03T00:40:06Z,42.805,6.029,13.2993,4.60032,2470.124,2020-9-03T02:40:56Z
2020-09-03T00:43:11Z,42.805,6.029,13.2992,4.60026,2470.087,2020-9-03T02:44:01Z
2020-09-03T00:46:13Z,42.805,6.029,13.2984,4.60012,2470.087,2020-9-03T02:47:04Z
2020-09-03T00:49:16Z,42.805,6.029,13.2990,4.60036,2470.1,2020-9-03T02:50:07Z
2020-09-03T00:52:21Z,42.805,6.029,13.2982,4.60019,2470.063,2020-9-03T02:53:12Z
2020-09-03T00:55:24Z,42.805,6.029,13.2998,4.60052,2470.077,2020-9-03T02:56:14Z
2020-09-03T00:58:26Z,42.805,6.029,13.2991,4.60044,2470.087,2020-9-03T02:59:17Z
2020-09-03T01:01:30Z,42.805,6.029,13.2990,4.60006,2470.063,2020-9-03T03:02:21Z
2020-09-03T01:04:33Z,42.805,6.029,13.2987,4.60036,2470.063,2020-9-03T03:05:24Z
2020-09-03T01:07:38Z,42.805,6.029,13.2989,4.60024,2470.087,2020-9-03T03:08:28Z
2020-09-03T01:10:42Z,42.805,6.029,13.2988,4.60044,2470.087,2020-9-03T03:11:33Z
2020-09-03T01:13:46Z,42.805,6.029,13.3003,4.60054,2470.053,2020-9-03T03:14:37Z
2020-09-03T01:16:47Z,42.805,6.029,13.2993,4.60028,2470.063,2020-9-03T03:17:38Z
2020-09-03T01:19:48Z,42.805,6.029,13.2998,4.60046,2470.063,2020-9-03T03:20:39Z
2020-09-03T01:22:52Z,42.805,6.029,13.3002,4.60039,2470.063,2020-9-03T03:23:43Z
2020-09-03T01:25:55Z,42.805,6.029,13.2997,4.60025,2470.077,2020-9-03T03:26:46Z
2020-09-03T01:28:59Z,42.805,6.029,13.2993,4.60060,2470.04,2020-9-03T03:29:49Z
2020-09-03T01:32:01Z,42.805,6.029,13.3004,4.60025,2470.026,2020-9-03T03:32:51Z
2020-09-03T01:35:03Z,42.805,6.029,13.3002,4.60027,2470.04,2020-9-03T03:35:54Z
2020-09-03T01:38:06Z,42.805,6.029,13.2989,4.60024,2470.04,2020-9-03T03:38:57Z
2020-09-03T01:41:11Z,42.805,6.029,13.2985,4.60045,2470.049,2020-9-03T03:42:02Z
2020-09-03T01:44:15Z,42.805,6.029,13.2999,4.60037,2470.03,2020-9-03T03:45:06Z
2020-09-03T01:47:17Z,42.805,6.029,13.2998,4.59987,2470.053,2020-9-03T03:48:08Z
2020-09-03T01:50:21Z,42.805,6.029,13.2997,4.60026,2470.053,2020-9-03T03:51:11Z
2020-09-03T01:53:22Z,42.805,6.029,13.2993,4.60002,2470.063,2020-9-03T03:54:13Z
2020-09-03T01:56:26Z,42.805,6.029,13.3006,4.60015,2470.04,2020-9-03T03:57:16Z
2020-09-03T01:59:27Z,42.805,6.029,13.2991,4.60011,2470.04,2020-9-03T04:00:18Z
2020-09-03T02:02:31Z,42.805,6.029,13.2990,4.60026,2470.1,2020-9-03T04:03:21Z
2020-09-03T02:05:33Z,42.805,6.029,13.2997,4.60024,2470.077,2020-9-03T04:06:23Z
2020-09-03T02:08:37Z,42.805,6.029,13.3004,4.60007,2470.063,2020-9-03T04:09:27Z
2020-09-03T02:11:40Z,42.805,6.029,13.2998,4.60034,2470.063,2020-9-03T04:12:31Z
2020-09-03T02:14:43Z,42.805,6.029,13.2996,4.60038,2470.053,2020-9-03T04:15:34Z
2020-09-03T02:17:47Z,42.805,6.029,13.2987,4.60016,2470.077,2020-9-03T04:18:37Z
2020-09-03T02:20:50Z,42.805,6.029,13.2986,4.60032,2470.053,2020-9-03T04:21:41Z
2020-09-03T02:23:54Z,42.805,6.029,13.2997,4.60003,2470.053,2020-9-03T04:24:45Z
2020-09-03T02:26:58Z,42.805,6.029,13.2993,4.59998,2470.04,2020-9-03T04:27:48Z
2020-09-03T02:30:02Z,42.805,6.029,13.3009,4.60000,2470.04,2020-9-03T04:30:53Z
2020-09-03T02:33:03Z,42.805,6.029,13.2997,4.60021,2470.077,2020-9-03T04:33:54Z
2020-09-03T02:36:05Z,42.805,6.029,13.2999,4.59992,2470.04,2020-9-03T04:36:56Z
2020-09-03T02:39:09Z,42.805,6.029,13.2986,4.59988,2470.04,2020-9-03T04:39:59Z
2020-09-03T02:42:12Z,42.805,6.029,13.2990,4.59996,2470.053,2020-9-03T04:43:03Z
2020-09-03T02:45:14Z,42.805,6.029,13.2992,4.60005,2470.053,2020-9-03T04:46:05Z
2020-09-03T02:48:17Z,42.805,6.029,13.3003,4.60003,2470.017,2020-9-03T04:49:08Z
2020-09-03T02:51:21Z,42.805,6.029,13.2993,4.59991,2470.063,2020-9-03T04:52:12Z
2020-09-03T02:54:24Z,42.805,6.029,13.2996,4.59986,2470.017,2020-9-03T04:55:15Z
2020-09-03T02:57:28Z,42.805,6.029,13.2990,4.60006,2470.077,2020-9-03T04:58:18Z
2020-09-03T03:00:31Z,42.805,6.029,13.2996,4.60009,2470.053,2020-9-03T05:01:22Z
2020-09-03T03:03:34Z,42.805,6.029,13.2988,4.60031,2470.017,2020-9-03T05:04:25Z
2020-09-03T03:06:39Z,42.805,6.029,13.2988,4.59997,2470.053,2020-9-03T05:07:29Z
2020-09-03T03:09:40Z,42.805,6.029,13.2995,4.60001,2470.077,2020-9-03T05:10:31Z
2020-09-03T03:12:44Z,42.805,6.029,13.2993,4.60003,2470.063,2020-9-03T05:13:35Z
2020-09-03T03:15:46Z,42.805,6.029,13.2991,4.60033,2470.063,2020-9-03T05:16:37Z
2020-09-03T03:18:49Z,42.805,6.029,13.2982,4.59991,2470.063,2020-9-03T05:19:40Z
2020-09-03T03:21:53Z,42.805,6.029,13.2993,4.59999,2470.049,2020-9-03T05:22:44Z
2020-09-03T03:24:56Z,42.805,6.029,13.2990,4.60012,2470.017,2020-9-03T05:25:47Z
2020-09-03T03:27:59Z,42.805,6.029,13.3000,4.60007,2470.053,2020-9-03T05:28:50Z
2020-09-03T03:31:03Z,42.805,6.029,13.2983,4.59989,2470.053,2020-9-03T05:31:54Z
2020-09-03T03:34:06Z,42.805,6.029,13.2992,4.59991,2470.077,2020-9-03T05:34:57Z
2020-09-03T03:37:09Z,42.805,6.029,13.2997,4.59996,2470.087,2020-9-03T05:38:00Z
2020-09-03T03:40:13Z,42.805,6.029,13.2996,4.60002,2470.087,2020-9-03T05:41:03Z
2020-09-03T03:43:16Z,42.805,6.029,13.2992,4.60021,2470.1,2020-9-03T05:44:07Z
2020-09-03T03:46:18Z,42.805,6.029,13.2991,4.60033,2470.077,2020-9-03T05:47:09Z
2020-09-03T03:49:19Z,42.805,6.029,13.2992,4.59994,2470.087,2020-9-03T05:50:10Z
2020-09-03T03:52:24Z,42.805,6.029,13.3001,4.59989,2470.077,2020-9-03T05:53:15Z
2020-09-03T03:55:28Z,42.805,6.029,13.2985,4.59994,2470.1,2020-9-03T05:56:18Z
2020-09-03T03:58:31Z,42.805,6.029,13.2989,4.60016,2470.053,2020-9-03T05:59:22Z
2020-09-03T04:01:36Z,42.805,6.029,13.2993,4.60014,2470.04,2020-9-03T06:02:26Z
2020-09-03T04:04:39Z,42.805,6.029,13.2990,4.60024,2470.053,2020-9-03T06:05:29Z
2020-09-03T04:07:42Z,42.805,6.029,13.2986,4.60009,2470.077,2020-9-03T06:08:33Z
2020-09-03T04:10:45Z,42.805,6.029,13.2991,4.60011,2470.087,2020-9-03T06:11:36Z
2020-09-03T04:13:49Z,42.805,6.029,13.2996,4.60010,2470.063,2020-9-03T06:14:40Z
2020-09-03T04:16:52Z,42.805,6.029,13.2983,4.59988,2470.124,2020-9-03T06:17:43Z
2020-09-03T04:19:56Z,42.805,6.029,13.2993,4.59993,2470.1,2020-9-03T06:20:46Z
2020-09-03T04:22:59Z,42.805,6.029,13.2990,4.59996,2470.087,2020-9-03T06:23:50Z
2020-09-03T04:26:02Z,42.805,6.029,13.2986,4.60013,2470.1,2020-9-03T06:26:53Z
2020-09-03T04:29:05Z,42.805,6.029,13.2991,4.60012,2470.087,2020-9-03T06:29:56Z
2020-09-03T04:32:09Z,42.805,6.029,13.2993,4.60007,2470.11,2020-9-03T06:33:00Z
2020-09-03T04:35:13Z,42.805,6.029,13.2984,4.60038,2470.087,2020-9-03T06:36:04Z
2020-09-03T04:38:17Z,42.805,6.029,13.2993,4.60029,2470.124,2020-9-03T06:39:07Z
2020-09-03T04:41:21Z,42.805,6.029,13.2984,4.60005,2470.124,2020-9-03T06:42:12Z
2020-09-03T04:44:25Z,42.805,6.029,13.2988,4.60007,2470.1,2020-9-03T06:45:16Z
2020-09-03T04:47:29Z,42.805,6.029,13.2985,4.60010,2470.124,2020-9-03T06:48:19Z
2020-09-03T04:50:33Z,42.805,6.029,13.2993,4.60019,2470.087,2020-9-03T06:51:24Z
2020-09-03T04:53:38Z,42.805,6.029,13.2983,4.60021,2470.147,2020-9-03T06:54:29Z
2020-09-03T04:56:41Z,42.805,6.029,13.2986,4.60008,2470.087,2020-9-03T06:57:32Z
2020-09-03T04:59:43Z,42.805,6.029,13.2991,4.60016,2470.11,2020-9-03T07:00:34Z
2020-09-03T05:02:48Z,42.805,6.029,13.2976,4.59993,2470.11,2020-9-03T07:03:38Z
2020-09-03T05:05:52Z,42.805,6.029,13.2982,4.60019,2470.124,2020-9-03T07:06:42Z
2020-09-03T05:08:53Z,42.805,6.029,13.2982,4.60010,2470.087,2020-9-03T07:09:44Z
2020-09-03T05:11:58Z,42.805,6.029,13.2979,4.60011,2470.11,2020-9-03T07:12:49Z
2020-09-03T05:15:04Z,42.805,6.029,13.2983,4.60005,2470.11,2020-9-03T07:15:53Z
2020-09-03T05:18:05Z,42.805,6.029,13.2986,4.60011,2470.124,2020-9-03T07:18:55Z
2020-09-03T05:21:07Z,42.805,6.029,13.2980,4.60008,2470.11,2020-9-03T07:21:57Z
2020-09-03T05:24:08Z,42.805,6.029,13.2985,4.60006,2470.11,2020-9-03T07:24:59Z
2020-09-03T05:27:11Z,42.805,6.029,13.2982,4.60003,2470.133,2020-9-03T07:28:02Z
2020-09-03T05:30:13Z,42.805,6.029,13.2976,4.60000,2470.156,2020-9-03T07:31:04Z
2020-09-03T05:33:18Z,42.805,6.029,13.2978,4.59988,2470.147,2020-9-03T07:34:09Z
2020-09-03T05:36:22Z,42.805,6.029,13.2984,4.60014,2470.156,2020-9-03T07:37:12Z
2020-09-03T05:39:25Z,42.805,6.029,13.2980,4.59996,2470.147,2020-9-03T07:40:15Z
2020-09-03T05:42:27Z,42.805,6.029,13.2986,4.59999,2470.11,2020-9-03T07:43:18Z
2020-09-03T05:45:31Z,42.805,6.029,13.2983,4.60014,2470.156,2020-9-03T07:46:21Z
2020-09-03T05:48:35Z,42.805,6.029,13.2984,4.59998,2470.194,2020-9-03T07:49:26Z
2020-09-03T05:51:37Z,42.805,6.029,13.2978,4.60003,2470.171,2020-9-03T07:52:28Z
2020-09-03T05:54:41Z,42.805,6.029,13.2988,4.60002,2470.194,2020-9-03T07:55:32Z
2020-09-03T05:57:45Z,42.805,6.029,13.2991,4.60004,2470.156,2020-9-03T07:58:36Z
2020-09-03T06:00:49Z,42.805,6.029,13.2982,4.59993,2470.156,2020-9-03T08:01:39Z
2020-09-03T06:03:51Z,42.805,6.029,13.2976,4.59991,2470.171,2020-9-03T08:04:42Z
2020-09-03T06:06:56Z,42.805,6.029,13.2979,4.59999,2470.133,2020-9-03T08:07:46Z
2020-09-03T06:09:58Z,42.805,6.029,13.2987,4.60005,2470.194,2020-9-03T08:10:49Z
2020-09-03T06:13:02Z,42.805,6.029,13.2986,4.60011,2470.156,2020-9-03T08:13:52Z
2020-09-03T06:16:06Z,42.805,6.029,13.2983,4.59998,2470.194,2020-9-03T08:16:56Z
2020-09-03T06:19:10Z,42.805,6.029,13.2982,4.60003,2470.18,2020-9-03T08:20:01Z
2020-09-03T06:22:15Z,42.805,6.029,13.2974,4.59991,2470.156,2020-9-03T08:23:06Z
2020-09-03T06:25:17Z,42.805,6.029,13.2984,4.59994,2470.194,2020-9-03T08:26:07Z
2020-09-03T06:28:19Z,42.805,6.029,13.2983,4.59982,2470.156,2020-9-03T08:29:09Z
2020-09-03T06:31:22Z,42.805,6.029,13.2977,4.60001,2470.18,2020-9-03T08:32:13Z
2020-09-03T06:34:26Z,42.805,6.029,13.2979,4.59995,2470.194,2020-9-03T08:35:16Z
2020-09-03T06:37:29Z,42.805,6.029,13.2993,4.59995,2470.18,2020-9-03T08:38:20Z
2020-09-03T06:40:32Z,42.805,6.029,13.2991,4.60014,2470.156,2020-9-03T08:41:23Z
2020-09-03T06:43:35Z,42.805,6.029,13.2976,4.60001,2470.156,2020-9-03T08:44:26Z
2020-09-03T06:46:39Z,42.805,6.029,13.2976,4.59991,2470.18,2020-9-03T08:47:29Z
2020-09-03T06:49:42Z,42.805,6.029,13.2987,4.60005,2470.24,2020-9-03T08:50:32Z
2020-09-03T06:52:45Z,42.805,6.029,13.2983,4.59997,2470.203,2020-9-03T08:53:36Z
2020-09-03T06:55:48Z,42.805,6.029,13.2979,4.59988,2470.227,2020-9-03T08:56:39Z
2020-09-03T06:58:51Z,42.805,6.029,13.2984,4.59996,2470.194,2020-9-03T08:59:42Z
2020-09-03T07:01:55Z,42.805,6.029,13.2981,4.59999,2470.18,2020-9-03T09:02:46Z
2020-09-03T07:04:58Z,42.805,6.029,13.2982,4.60009,2470.217,2020-9-03T09:05:49Z
2020-09-03T07:08:01Z,42.805,6.029,13.2982,4.60009,2470.203,2020-9-03T09:08:52Z
2020-09-03T07:11:05Z,42.805,6.029,13.2983,4.60009,2470.18,2020-9-03T09:11:55Z
2020-09-03T07:14:08Z,42.805,6.029,13.2980,4.60011,2470.227,2020-9-03T09:14:59Z
2020-09-03T07:17:11Z,42.805,6.029,13.2980,4.59990,2470.24,2020-9-03T09:18:02Z
2020-09-03T07:20:14Z,42.805,6.029,13.2984,4.60005,2470.194,2020-9-03T09:21:05Z
2020-09-03T07:23:18Z,42.805,6.029,13.2978,4.59987,2470.227,2020-9-03T09:24:08Z
2020-09-03T07:26:22Z,42.805,6.029,13.2990,4.60003,2470.217,2020-9-03T09:27:12Z
2020-09-03T07:29:26Z,42.805,6.029,13.2976,4.60001,2470.217,2020-9-03T09:30:17Z
2020-09-03T07:32:31Z,42.805,6.029,13.2991,4.59994,2470.227,2020-9-03T09:33:21Z
2020-09-03T07:35:33Z,42.805,6.029,13.2979,4.59992,2470.203,2020-9-03T09:36:24Z
2020-09-03T07:38:35Z,42.805,6.029,13.2979,4.60003,2470.24,2020-9-03T09:39:26Z
2020-09-03T07:41:39Z,42.805,6.029,13.2980,4.60001,2470.227,2020-9-03T09:42:30Z
2020-09-03T07:44:44Z,42.805,6.029,13.2982,4.60005,2470.18,2020-9-03T09:45:35Z
2020-09-03T07:47:48Z,42.805,6.029,13.2985,4.60004,2470.203,2020-9-03T09:48:38Z
2020-09-03T07:50:51Z,42.805,6.029,13.2982,4.60004,2470.18,2020-9-03T09:51:42Z
2020-09-03T07:53:53Z,42.805,6.029,13.2990,4.60005,2470.203,2020-9-03T09:54:44Z
2020-09-03T07:56:55Z,42.805,6.029,13.2982,4.60013,2470.203,2020-9-03T09:57:45Z
2020-09-03T07:59:58Z,42.805,6.029,13.2979,4.60015,2470.213,2020-9-03T10:00:49Z
2020-09-03T08:03:01Z,42.805,6.029,13.2987,4.60006,2470.194,2020-9-03T10:03:52Z
2020-09-03T08:06:05Z,42.805,6.029,13.2979,4.60010,2470.217,2020-9-03T10:06:55Z
2020-09-03T08:09:08Z,42.805,6.029,13.2982,4.60006,2470.227,2020-9-03T10:09:59Z
2020-09-03T08:12:11Z,42.805,6.029,13.2986,4.60003,2470.18,2020-9-03T10:13:02Z
2020-09-03T08:15:14Z,42.805,6.029,13.2978,4.59991,2470.194,2020-9-03T10:16:05Z
2020-09-03T08:18:18Z,42.805,6.029,13.2980,4.60002,2470.194,2020-9-03T10:19:08Z
2020-09-03T08:21:21Z,42.805,6.029,13.2975,4.59996,2470.203,2020-9-03T10:22:12Z
2020-09-03T08:24:25Z,42.805,6.029,13.2987,4.59999,2470.18,2020-9-03T10:25:16Z
2020-09-03T08:27:30Z,42.805,6.029,13.2979,4.60009,2470.18,2020-9-03T10:28:21Z
2020-09-03T08:30:34Z,42.805,6.029,13.2980,4.60000,2470.18,2020-9-03T10:31:25Z
2020-09-03T08:33:38Z,42.805,6.029,13.2986,4.59996,2470.203,2020-9-03T10:34:28Z
2020-09-03T08:36:39Z,42.805,6.029,13.2981,4.60008,2470.18,2020-9-03T10:37:30Z
2020-09-03T08:39:41Z,42.805,6.029,13.2981,4.59995,2470.194,2020-9-03T10:40:32Z
2020-09-03T08:42:44Z,42.805,6.029,13.2982,4.59990,2470.194,2020-9-03T10:43:35Z
2020-09-03T08:45:46Z,42.805,6.029,13.2979,4.60004,2470.18,2020-9-03T10:46:37Z
2020-09-03T08:48:48Z,42.805,6.029,13.2986,4.59998,2470.18,2020-9-03T10:49:39Z
2020-09-03T08:51:52Z,42.805,6.029,13.2979,4.59997,2470.203,2020-9-03T10:52:43Z
2020-09-03T08:54:56Z,42.805,6.029,13.2979,4.60000,2470.18,2020-9-03T10:55:46Z
2020-09-03T08:58:00Z,42.805,6.029,13.2979,4.59996,2470.18,2020-9-03T10:58:51Z
2020-09-03T09:01:03Z,42.805,6.029,13.2985,4.60009,2470.18,2020-9-03T11:01:54Z
2020-09-03T09:04:08Z,42.805,6.029,13.2985,4.60001,2470.156,2020-9-03T11:04:58Z
2020-09-03T09:07:11Z,42.805,6.029,13.2986,4.60001,2470.194,2020-9-03T11:08:02Z
2020-09-03T09:10:12Z,42.805,6.029,13.2979,4.59994,2470.194,2020-9-03T11:11:03Z
2020-09-03T09:13:16Z,42.805,6.029,13.2978,4.59994,2470.171,2020-9-03T11:14:07Z
2020-09-03T09:16:20Z,42.805,6.029,13.2981,4.59999,2470.156,2020-9-03T11:17:11Z
2020-09-03T09:19:23Z,42.805,6.029,13.2979,4.60002,2470.156,2020-9-03T11:20:14Z
2020-09-03T09:22:25Z,42.805,6.029,13.2985,4.60001,2470.156,2020-9-03T11:23:15Z
2020-09-03T09:25:27Z,42.805,6.029,13.2981,4.59984,2470.156,2020-9-03T11:26:17Z
2020-09-03T09:28:29Z,42.805,6.029,13.2982,4.60004,2470.18,2020-9-03T11:29:20Z
2020-09-03T09:31:33Z,42.805,6.029,13.2979,4.60002,2470.194,2020-9-03T11:32:24Z
2020-09-03T09:34:36Z,42.805,6.029,13.2982,4.60000,2470.133,2020-9-03T11:35:27Z
2020-09-03T09:37:38Z,42.805,6.029,13.2985,4.60006,2470.171,2020-9-03T11:38:29Z
2020-09-03T09:40:41Z,42.805,6.029,13.2980,4.59996,2470.133,2020-9-03T11:41:32Z
2020-09-03T09:43:45Z,42.805,6.029,13.2986,4.59993,2470.171,2020-9-03T11:44:36Z
2020-09-03T09:46:50Z,42.805,6.029,13.2981,4.59994,2470.166,2020-9-03T11:47:40Z
2020-09-03T09:49:53Z,42.805,6.029,13.2982,4.60002,2470.171,2020-9-03T11:50:44Z
2020-09-03T09:52:57Z,42.805,6.029,13.2983,4.60002,2470.156,2020-9-03T11:53:47Z
2020-09-03T09:56:02Z,42.805,6.029,13.2986,4.59995,2470.171,2020-9-03T11:56:52Z
2020-09-03T09:59:06Z,42.805,6.029,13.2981,4.59994,2470.147,2020-9-03T11:59:56Z
2020-09-03T10:02:10Z,42.805,6.029,13.2978,4.59990,2470.124,2020-9-03T12:03:01Z
2020-09-03T10:05:12Z,42.805,6.029,13.2981,4.60014,2470.171,2020-9-03T12:06:03Z
2020-09-03T10:08:14Z,42.805,6.029,13.2979,4.60016,2470.18,2020-9-03T12:09:05Z
2020-09-03T10:11:18Z,42.805,6.029,13.2983,4.60001,2470.133,2020-9-03T12:12:08Z
2020-09-03T10:14:21Z,42.805,6.029,13.2987,4.59997,2470.124,2020-9-03T12:15:12Z
2020-09-03T10:17:22Z,42.805,6.029,13.2980,4.59999,2470.133,2020-9-03T12:18:13Z
2020-09-03T10:20:26Z,42.805,6.029,13.2983,4.59996,2470.133,2020-9-03T12:21:17Z
2020-09-03T10:23:31Z,42.805,6.029,13.2976,4.59998,2470.11,2020-9-03T12:24:21Z
2020-09-03T10:26:34Z,42.805,6.029,13.2978,4.59999,2470.11,2020-9-03T12:27:25Z
2020-09-03T10:29:37Z,42.805,6.029,13.2977,4.59996,2470.133,2020-9-03T12:30:28Z
2020-09-03T10:32:42Z,42.805,6.029,13.2982,4.59992,2470.133,2020-9-03T12:33:33Z
2020-09-03T10:35:45Z,42.805,6.029,13.2982,4.59994,2470.11,2020-9-03T12:36:36Z
2020-09-03T10:38:50Z,42.805,6.029,13.2981,4.59998,2470.11,2020-9-03T12:39:41Z
2020-09-03T10:41:51Z,42.805,6.029,13.2984,4.60010,2470.124,2020-9-03T12:42:42Z
2020-09-03T10:44:55Z,42.805,6.029,13.2982,4.60010,2470.133,2020-9-03T12:45:45Z
2020-09-03T10:47:56Z,42.805,6.029,13.2987,4.60001,2470.133,2020-9-03T12:48:47Z
2020-09-03T10:50:59Z,42.805,6.029,13.2990,4.60015,2470.124,2020-9-03T12:51:50Z
2020-09-03T10:54:03Z,42.805,6.029,13.2985,4.60002,2470.133,2020-9-03T12:54:54Z
2020-09-03T10:57:08Z,42.805,6.029,13.2986,4.60013,2470.063,2020-9-03T12:57:59Z
2020-09-03T11:00:13Z,42.805,6.029,13.2982,4.60000,2470.11,2020-9-03T13:01:04Z
2020-09-03T11:03:15Z,42.805,6.029,13.2989,4.59998,2470.124,2020-9-03T13:04:05Z
2020-09-03T11:06:18Z,42.805,6.029,13.2982,4.60000,2470.087,2020-9-03T13:07:09Z
2020-09-03T11:09:22Z,42.805,6.029,13.2983,4.60000,2470.063,2020-9-03T13:10:12Z
2020-09-03T11:12:24Z,42.805,6.029,13.2984,4.60007,2470.087,2020-9-03T13:13:15Z
2020-09-03T11:15:29Z,42.805,6.029,13.2979,4.60014,2470.063,2020-9-03T13:16:19Z
2020-09-03T11:18:32Z,42.805,6.029,13.2979,4.60014,2470.087,2020-9-03T13:19:23Z
2020-09-03T11:21:34Z,42.805,6.029,13.2985,4.59999,2470.087,2020-9-03T13:22:25Z
2020-09-03T11:24:38Z,42.805,6.029,13.2983,4.59997,2470.11,2020-9-03T13:25:28Z
2020-09-03T11:27:42Z,42.805,6.029,13.2976,4.59993,2470.087,2020-9-03T13:28:32Z
2020-09-03T11:30:43Z,42.805,6.029,13.2986,4.60009,2470.087,2020-9-03T13:31:34Z
2020-09-03T11:33:46Z,42.805,6.029,13.2983,4.60000,2470.087,2020-9-03T13:34:37Z
2020-09-03T11:36:50Z,42.805,6.029,13.2987,4.60009,2470.087,2020-9-03T13:37:40Z
2020-09-03T11:39:52Z,42.805,6.029,13.2990,4.60008,2470.04,2020-9-03T13:40:43Z
2020-09-03T11:42:57Z,42.805,6.029,13.2984,4.60016,2470.077,2020-9-03T13:43:47Z
2020-09-03T11:46:01Z,42.805,6.029,13.2990,4.60010,2470.087,2020-9-03T13:46:52Z
2020-09-03T11:49:03Z,42.805,6.029,13.2983,4.60021,2470.1,2020-9-03T13:49:54Z
2020-09-03T11:52:07Z,42.805,6.029,13.2983,4.59995,2470.096,2020-9-03T13:52:58Z
2020-09-03T11:55:10Z,42.805,6.029,13.2989,4.60003,2470.063,2020-9-03T13:56:01Z
2020-09-03T11:58:12Z,42.805,6.029,13.2983,4.60011,2470.087,2020-9-03T13:59:02Z
2020-09-03T12:01:13Z,42.805,6.029,13.2983,4.60001,2470.063,2020-9-03T14:02:04Z
2020-09-03T12:04:16Z,42.805,6.029,13.2990,4.60009,2470.04,2020-9-03T14:05:07Z
2020-09-03T12:07:18Z,42.805,6.029,13.2984,4.59996,2470.063,2020-9-03T14:08:09Z
2020-09-03T12:10:22Z,42.805,6.029,13.2982,4.60003,2470.063,2020-9-03T14:11:12Z
2020-09-03T12:13:23Z,42.805,6.029,13.2989,4.59999,2470.063,2020-9-03T14:14:14Z
2020-09-03T12:16:26Z,42.805,6.029,13.2995,4.60027,2470.087,2020-9-03T14:17:17Z
2020-09-03T12:19:30Z,42.805,6.029,13.2989,4.60005,2470.077,2020-9-03T14:20:21Z
2020-09-03T12:22:33Z,42.805,6.029,13.2981,4.60013,2470.077,2020-9-03T14:23:24Z
2020-09-03T12:25:37Z,42.805,6.029,13.2976,4.59994,2470.053,2020-9-03T14:26:27Z
2020-09-03T12:28:40Z,42.805,6.029,13.2974,4.60011,2470.077,2020-9-03T14:29:31Z
2020-09-03T12:31:44Z,42.805,6.029,13.2983,4.60010,2470.087,2020-9-03T14:32:35Z
2020-09-03T12:34:48Z,42.805,6.029,13.2985,4.60019,2470.063,2020-9-03T14:35:38Z
2020-09-03T12:37:49Z,42.805,6.029,13.2980,4.60026,2470.053,2020-9-03T14:38:40Z
2020-09-03T12:40:53Z,42.805,6.029,13.2988,4.60033,2470.077,2020-9-03T14:41:43Z
2020-09-03T12:43:57Z,42.805,6.029,13.2983,4.60011,2470.04,2020-9-03T14:44:48Z
2020-09-03T12:46:59Z,42.805,6.029,13.2983,4.60022,2470.063,2020-9-03T14:47:50Z
2020-09-03T12:50:01Z,42.805,6.029,13.2985,4.60029,2470.017,2020-9-03T14:50:52Z
2020-09-03T12:53:05Z,42.805,6.029,13.2977,4.59993,2470.077,2020-9-03T14:53:56Z
2020-09-03T12:56:10Z,42.805,6.029,13.2980,4.60000,2470.053,2020-9-03T14:57:01Z
2020-09-03T12:59:13Z,42.805,6.029,13.2979,4.60005,2470.017,2020-9-03T15:00:04Z
2020-09-03T13:02:17Z,42.805,6.029,13.2980,4.60009,2470.053,2020-9-03T15:03:07Z
2020-09-03T13:05:20Z,42.805,6.029,13.2981,4.60012,2470.063,2020-9-03T15:06:11Z
2020-09-03T13:08:23Z,42.805,6.029,13.2982,4.60001,2470.04,2020-9-03T15:09:14Z
2020-09-03T13:11:26Z,42.805,6.029,13.2988,4.60014,2470.03,2020-9-03T15:12:17Z
2020-09-03T13:14:30Z,42.805,6.029,13.2990,4.60016,2470.053,2020-9-03T15:15:20Z
2020-09-03T13:17:33Z,42.805,6.029,13.2986,4.60025,2470.017,2020-9-03T15:18:24Z
2020-09-03T13:20:36Z,42.805,6.029,13.2994,4.60019,2470.04,2020-9-03T15:21:27Z
2020-09-03T13:23:39Z,42.805,6.029,13.2990,4.60012,2470.03,2020-9-03T15:24:30Z
2020-09-03T13:26:41Z,42.805,6.029,13.2997,4.60038,2470.077,2020-9-03T15:27:32Z
2020-09-03T13:29:44Z,42.805,6.029,13.2982,4.60010,2470.017,2020-9-03T15:30:34Z
2020-09-03T13:32:46Z,42.805,6.029,13.2995,4.60026,2470.04,2020-9-03T15:33:37Z
2020-09-03T13:35:48Z,42.805,6.029,13.2978,4.60011,2470.053,2020-9-03T15:36:39Z
2020-09-03T13:38:52Z,42.805,6.029,13.2981,4.60024,2470.03,2020-9-03T15:39:42Z
2020-09-03T13:41:55Z,42.805,6.029,13.2979,4.60002,2470.063,2020-9-03T15:42:46Z
2020-09-03T13:44:58Z,42.805,6.029,13.2986,4.60009,2470.077,2020-9-03T15:45:49Z
2020-09-03T13:48:03Z,42.805,6.029,13.2979,4.60011,2470.017,2020-9-03T15:48:54Z
2020-09-03T13:51:04Z,42.805,6.029,13.2987,4.60017,2470.04,2020-9-03T15:51:55Z
2020-09-03T13:54:06Z,42.805,6.029,13.2986,4.60014,2470.053,2020-9-03T15:54:57Z
2020-09-03T13:57:11Z,42.805,6.029,13.2980,4.60026,2470.04,2020-9-03T15:58:02Z
2020-09-03T14:00:15Z,42.805,6.029,13.2986,4.60031,2470.077,2020-9-03T16:01:05Z
2020-09-03T14:03:17Z,42.805,6.029,13.2996,4.60031,2470.03,2020-9-03T16:04:08Z
2020-09-03T14:06:18Z,42.805,6.029,13.2990,4.60032,2470.053,2020-9-03T16:07:09Z
2020-09-03T14:09:21Z,42.805,6.029,13.2991,4.60013,2470.053,2020-9-03T16:10:11Z
2020-09-03T14:12:23Z,42.805,6.029,13.2982,4.60021,2470.017,2020-9-03T16:13:13Z
2020-09-03T14:15:26Z,42.805,6.029,13.2982,4.60039,2470.04,2020-9-03T16:16:17Z
2020-09-03T14:18:28Z,42.805,6.029,13.2989,4.60025,2470.04,2020-9-03T16:19:18Z
2020-09-03T14:21:30Z,42.805,6.029,13.3002,4.60028,2470.017,2020-9-03T16:22:21Z
2020-09-03T14:24:32Z,42.805,6.029,13.2990,4.60032,2470.017,2020-9-03T16:25:22Z
2020-09-03T14:27:36Z,42.805,6.029,13.2993,4.60031,2470.077,2020-9-03T16:28:26Z
2020-09-03T14:30:40Z,42.805,6.029,13.2986,4.60054,2470.03,2020-9-03T16:31:31Z
2020-09-03T14:33:44Z,42.805,6.029,13.2982,4.60046,2470.04,2020-9-03T16:34:35Z
2020-09-03T14:36:45Z,42.805,6.029,13.2984,4.60060,2470.053,2020-9-03T16:37:36Z
2020-09-03T14:39:49Z,42.805,6.029,13.2985,4.60005,2470.053,2020-9-03T16:40:40Z
2020-09-03T14:42:53Z,42.805,6.029,13.2986,4.60021,2470.04,2020-9-03T16:43:44Z
2020-09-03T14:45:57Z,42.805,6.029,13.2985,4.60031,2470.017,2020-9-03T16:46:48Z
2020-09-03T14:49:01Z,42.805,6.029,13.2980,4.60046,2469.993,2020-9-03T16:49:52Z
2020-09-03T14:52:04Z,42.805,6.029,13.2981,4.60014,2470.03,2020-9-03T16:52:55Z
2020-09-03T14:55:08Z,42.805,6.029,13.2996,4.60064,2470.04,2020-9-03T16:55:58Z
2020-09-03T14:58:09Z,42.805,6.029,13.2996,4.60013,2470.04,2020-9-03T16:58:59Z
2020-09-03T15:01:10Z,42.805,6.029,13.2982,4.60067,2470.03,2020-9-03T17:02:01Z
2020-09-03T15:04:13Z,42.805,6.029,13.2986,4.60026,2470.077,2020-9-03T17:05:03Z
2020-09-03T15:07:16Z,42.805,6.029,13.2983,4.60047,2470.04,2020-9-03T17:08:07Z
2020-09-03T15:10:19Z,42.805,6.029,13.2982,4.60052,2470.053,2020-9-03T17:11:10Z
2020-09-03T15:13:21Z,42.805,6.029,13.2988,4.60042,2470.03,2020-9-03T17:14:12Z